Regional Weather Roundup
Issued by NWS

Home | Current Version | Previous Version | Graphics & Text | Print | Product List | Glossary On
Versions: 1 2 3 4 5 6 7 8 9 10 11 12 13 14 15 16 17 18 19 20 21 22 23 24 25 26 27 28 29 30 31 32 33 34 35 36 37 38 39 40 41 42 43 44 45 46 47 48 49 50
000
ASUS45 KBOU 012110
RWRCO

WEATHER ROUNDUP FOR COLORADO
NATIONAL WEATHER SERVICE DENVER/BOULDER CO
300 PM MDT SAT AUG 01 2015

NOTE: "FAIR" INDICATES FEW OR NO CLOUDS BELOW 12000 FEET WITH NO
SIGNIFICANT WEATHER AND/OR OBSTRUCTIONS TO VISIBILITY.

COZ001>005-013-030-031-012200-
...NORTHWEST COLORADO...

CITY           SKY/WX    TMP DP  RH WIND       PRES   REMARKS
CRAIG          MOSUNNY   91  31  11 E5        30.17F
HAYDEN         MOSUNNY   86  28  12 NW5       30.21F
MEEKER         PTSUNNY   87  46  24 S13       30.19F
MOUNT WERNER   NOT AVBL
STEAMBOAT SPGS MOSUNNY   83  33  16 SW6       30.24F
WALDEN         PTSUNNY   77  23  13 CALM      30.33F
$$

COZ006>008-011-012200-
...WEST CENTRAL VALLEYS...

CITY           SKY/WX    TMP DP  RH WIND       PRES   REMARKS
GRAND JUNCTION PTSUNNY   87  49  26 SW5       30.08F
MONTROSE       CLOUDY    86  47  25 NW7       30.18F
EAGLE          MOSUNNY   84  36  17 NW8       30.21F
RIFLE          PTSUNNY   93  34  12 N6        30.10F
DELTA          CLOUDY    90  49  23 SW5       30.13F
NUCLA          CLOUDY    79  46  31 SW5       30.26F
$$

COZ017>023-064>068-012200-
...SOUTHWEST COLORADO...

CITY           SKY/WX    TMP DP  RH WIND       PRES   REMARKS
DURANGO        LGT RAIN  67  58  72 E9        30.30S
CORTEZ         SUNNY     77  57  50 SE5       30.22F
PAGOSA SPRINGS TSTM      65  55  68 W3        30.39S
TELLURIDE      CLOUDY    65  51  61 S6        30.48F
WOLF CREEK PAS NOT AVBL
$$

COZ009-010-012-014-032>034-037-058>063-012200-
...CENTRAL COLORADO...

CITY           SKY/WX    TMP DP  RH WIND       PRES   REMARKS
ASPEN          PTSUNNY   79  41  25 VRB6      30.30F
BUENA VISTA    CLOUDY    76  33  21 SE6       30.32S
COPPER MTN     PTSUNNY   68  28  22 W7        30.67F
BERTHOUD PASS  FAIR      55  46  71 MISG      30.73F
COTTONWOOD PAS CLOUDY    68  34  28 SW10      30.48F
GUNNISON       PTSUNNY   79  39  24 NE16G23   30.33S
KREMMLING      MOSUNNY   88  21   8 N7        30.27F
LEADVILLE      CLOUDY    68  31  25 N13       30.47F
MONARCH PASS   CLOUDY    50  37  62 NW3       30.79R
SALIDA         CLOUDY    80  39  23 W14G21    30.35
SUNLIGHT       PTSUNNY   68  34  28 N7        30.59F
WILKERSON PASS PTSUNNY   63  32  31 CALM      30.63F
$$

COZ069>075-012200-
...SAN LUIS VALLEY/SANGRE DE CRISTO MOUNTAINS...

CITY           SKY/WX    TMP DP  RH WIND       PRES   REMARKS
ALAMOSA        PTSUNNY   76  47  35 SW15      30.31F
LA VETA PASS   TSTM      54  46  76 MISG      30.52S
SAGUACHE       PTSUNNY   75  50  41 SW3       30.33F
$$

COZ035-036-038>040-012200-
...NORTHERN COLORADO FRONT RANGE...

CITY           SKY/WX    TMP DP  RH WIND       PRES   REMARKS
DENVER INTL AP MOSUNNY   95  29   9 N6        30.09F
DMNS CITY PARK   N/A     94  34  12 NE8G20    30.07F
AURORA         MOSUNNY   93  39  15 NE8       30.11F
FRONT RANGE AP MOSUNNY   93  41  16 E7        30.11F
ERIE MUNI ARPT MOSUNNY   95  29  10 N5        30.07F
BOULDER MUN AP MOSUNNY   86  50  28 NW5       30.08F
CENTENNIAL     MOSUNNY   92  38  15 E10       30.12F
BROOMFIELD     PTSUNNY   91  39  16 N7        30.12
FORT COLLINS   MOSUNNY   93  48  21 S13       30.04F
LONGMONT       MOSUNNY   90  52  26 NW5       30.09F
$$

COZ041-046-047-076>085-087-088-012200-
...PIKES PEAK/PALMER DIVIDE AND SOUTHERN FOOTHILLS...

CITY           SKY/WX    TMP DP  RH WIND       PRES   REMARKS
COLO. SPRINGS  PTSUNNY   86  51  29 SE12      30.18F
A. F. ACADEMY  MOSUNNY   86  51  29 S13       30.19F
ELLICOTT       MOSUNNY  N/A N/A N/A VRB6      30.17F
FALCON         MOSUNNY   85  51  30 E12       30.24F
FORT CARSON    PTSUNNY   85  51  31 E7        30.15F
LIMON          SUNNY     86  53  32 E5        30.14F
MONUMENT HILL  NOT AVBL
TRINIDAD       MOSUNNY   86  50  28 S6        30.14F
$$

COZ042>045-048>051-090-091-012200-
...NORTHEAST COLORADO...

CITY           SKY/WX    TMP DP  RH WIND       PRES   REMARKS
GREELEY ARPT   MOSUNNY   93  45  18 SE5       30.05F
AKRON          SUNNY     91  50  24 S9G20     30.07F
BURLINGTON     SUNNY     87  52  29 S20G25    30.09F
WRAY           SUNNY     95  48  20 S13G22    30.04F
STERLING       SUNNY     93  54  26 SE6       30.01F
HOLYOKE        NOT AVBL
FORT MORGAN    SUNNY     94  41  16 SE5       30.05F
$$

COZ086-089-092>099-012200-
...SOUTHEAST COLORADO...

CITY           SKY/WX    TMP DP  RH WIND       PRES   REMARKS
PUEBLO         MOSUNNY   93  51  23 VRB7G17   30.05F
LA JUNTA       SUNNY     93  55  27 CALM      30.04F
LAMAR          MOSUNNY   94  60  32 E9        30.01F
SPRINGFIELD      N/A     87  62  43 MISG      30.07F
$$



USA.gov is the U.S. government's official web portal to all federal, state and local government web resources and services.